Winner, SD

12:33 PM CDT on August 31, 2016 (GMT -0500)
Winner

Weather History for KICR - March, 2014

Change the Weather History Date:

Monday, March 3, 2014

  Actual Average Record
Temperature  
Mean Temperature 11 °F 32 °F  
Max Temperature 30 °F 43 °F 51 °F (2009)
Min Temperature -9 °F 21 °F -9 °F (2014)
Degree Days  
Heating Degree Days 54 33  
Month to date heating degree days 193 100  
Since 1 July heating degree days 5526 5109  
Cooling Degree Days 0 0  
Month to date cooling degree days 0 0  
Year to date cooling degree days 0 0  
Moisture  
Dew Point 2 °F    
Average Humidity 70    
Maximum Humidity 84    
Minimum Humidity 56    
Precipitation  
Precipitation 0.00 in 0.02 in 0.05 in (2015)
Month to date precipitation 0.01 0.04  
Year to date precipitation 0.09 0.80  
Sea Level Pressure  
Sea Level Pressure 30.21 in    
Wind  
Wind Speed 13 mph (SSW)    
Max Wind Speed 26 mph    
Max Gust Speed 33 mph    
Visibility 10 miles    
Events      
T = Trace of Precipitation, MM = Missing Value Source: NWS Daily Summary

Daily Weather History Graph

Daily Weather History Graph

Search for Another Location

Airport or City:

Trip Planner

Search our weather history database for the weather conditions in past years. The results will help you decide how hot, cold, wet, or windy it might be!

Date:

Astronomy

Mar. 03, 2014 Rise Set
Actual Time 7:12 AM CST 6:30 PM CST
Civil Twilight 6:43 AM CST 6:59 PM CST
Nautical Twilight 6:10 AM CST 7:32 PM CST
Astronomical Twilight 5:37 AM CST 8:05 PM CST
Moon 8:16 AM CST (3/3) 9:42 PM CST (3/3)
Length of Visible Light 12h 15m
Length of Day
11h 18m
Waxing Crescent, 8% of the Moon is Illuminated
Mar 3
Waxing Crescent
Mar 8
First Quarter
Mar 16
Full
Mar 23
Last Quarter
Mar 30
New

Hourly Weather History & Observations

Time (CST) Temp. Windchill Dew Point Humidity Pressure Visibility Wind Dir Wind Speed Gust Speed Precip Events Conditions
12:53 AM -5.1 °F -22.5 °F -17.0 °F 57% 30.56 in 10.0 mi SSE 10.4 mph - N/A   Clear
1:53 AM -5.1 °F -22.5 °F -16.1 °F 59% 30.53 in 10.0 mi SSE 10.4 mph - N/A   Clear
2:53 AM -4.0 °F -23.0 °F -15.0 °F 59% 30.48 in 10.0 mi SSE 12.7 mph - N/A   Clear
3:53 AM -2.9 °F -20.8 °F -14.1 °F 59% 30.43 in 10.0 mi SSE 11.5 mph - N/A   Clear
4:53 AM -2.0 °F -23.9 °F -13.0 °F 60% 30.38 in 10.0 mi SSE 18.4 mph - N/A   Clear
5:53 AM -0.9 °F -19.1 °F -11.9 °F 60% 30.34 in 10.0 mi SSE 12.7 mph - N/A   Clear
6:53 AM -0.0 °F -20.1 °F -9.0 °F 66% 30.30 in 10.0 mi SSE 16.1 mph - N/A   Clear
7:53 AM 3.9 °F -14.3 °F -6.0 °F 64% 30.27 in 10.0 mi SSE 15.0 mph 23.0 mph N/A   Clear
8:53 AM 5.0 °F -14.7 °F -4.0 °F 66% 30.24 in 9.0 mi SSE 18.4 mph 25.3 mph N/A   Clear
9:53 AM 9.0 °F -10.5 °F -0.9 °F 64% 30.20 in 7.0 mi South 20.7 mph 28.8 mph N/A   Clear
10:53 AM 14.0 °F -3.0 °F 3.0 °F 62% 30.18 in 10.0 mi South 18.4 mph - N/A   Clear
11:53 AM 18.0 °F 3.1 °F 7.0 °F 62% 30.15 in 10.0 mi South 16.1 mph - N/A   Clear
12:53 PM 19.9 °F 4.8 °F 8.1 °F 60% 30.13 in 10.0 mi South 18.4 mph - N/A   Clear
1:53 PM 24.1 °F 12.5 °F 12.0 °F 60% 30.08 in 10.0 mi South 12.7 mph - N/A   Clear
2:53 PM 28.0 °F 15.7 °F 15.1 °F 58% 30.06 in 10.0 mi SSW 17.3 mph - N/A   Clear
3:53 PM 28.9 °F 18.6 °F 16.0 °F 58% 30.05 in 10.0 mi SSW 12.7 mph - N/A   Clear
4:53 PM 30.0 °F 23.2 °F 18.0 °F 61% 30.05 in 10.0 mi SW 6.9 mph - N/A   Clear
5:53 PM 27.0 °F 16.1 °F 17.1 °F 66% 30.09 in 10.0 mi WNW 12.7 mph - N/A   Clear
6:53 PM 19.9 °F 11.1 °F 12.9 °F 74% 30.09 in 10.0 mi West 6.9 mph - N/A   Clear
7:53 PM 17.1 °F 5.0 °F 10.9 °F 77% 30.11 in 10.0 mi West 10.4 mph - N/A   Clear
8:53 PM 15.1 °F 4.2 °F 9.0 °F 77% 30.12 in 10.0 mi WNW 8.1 mph - N/A   Clear
9:53 PM 12.9 °F 2.6 °F 8.1 °F 81% 30.12 in 10.0 mi West 6.9 mph - N/A   Clear
10:53 PM 10.9 °F 1.4 °F 6.1 °F 81% 30.10 in 10.0 mi SW 5.8 mph - N/A   Clear
11:53 PM 10.9 °F 1.4 °F 6.1 °F 81% 30.09 in 10.0 mi NW 5.8 mph - N/A   Clear